Regional Weather Roundup
Issued by NWS Upton, NY

Current Version | Previous Version | Text Only | Print | Product List | Glossary On
Versions: 1 2 3 4 5 6 7 8 9 10 11 12 13 14 15 16 17 18 19 20 21 22 23 24 25 26 27 28
000
ASUS41 KOKX 280104
RWROKX

REGIONAL WEATHER ROUNDUP
NATIONAL WEATHER SERVICE NEW YORK NY
900 PM EDT SAT AUG 27 2016

NOTE: "FAIR" INDICATES FEW OR NO CLOUDS BELOW 12,000 FEET WITH NO
SIGNIFICANT WEATHER AND/OR OBSTRUCTIONS TO VISIBILITY.

NYZ071-072-176-178-NJZ106-104-280200-
NEW YORK CITY METRO AREA

CITY           SKY/WX    TMP DP  RH WIND       PRES   REMARKS
Central Park   PTCLDY    78  57  48 CALM      30.24R
LaGuardia APRT MOCLDY    81  58  45 SE7       30.21R
Kennedy INTL   PTCLDY    80  58  46 CALM      30.22R
Newark/Liberty MOCLDY    78  62  57 SE6       30.21R
Bronx Bot Gard   N/A     77  55  47 E1        30.22F
Wall St Helipt PTCLDY    79  61  53 S5        30.22R
Teterboro      PTCLDY    79  57  46 S5        30.20R
$$

NYZ177-179-078>081-280200-
LONG ISLAND NEW YORK

CITY           SKY/WX    TMP DP  RH WIND       PRES   REMARKS
Farmingdale    CLEAR     75  62  64 CALM      30.22R
MacArthur/ISP  PTCLDY    74  66  76 CALM      30.22R
Shirley        CLEAR     70  64  81 CALM      30.23R
Riverhead      NOT AVBL
Westhampton    PTCLDY    66  62  87 CALM      30.24R
Southampton      N/A     72  68  88 CALM      30.19
Bridgehampton    N/A     70  66  88 CALM      30.21
East Hampton   FAIR      67  64  91 CALM      30.22R
Montauk          N/A     70  67  90 CALM      30.24R
$$

NYZ052-065-067-280200-
HUDSON VALLEY

CITY           SKY/WX    TMP DP  RH WIND       PRES   REMARKS
White Plains   PTCLDY    72  61  68 CALM      30.22R
Newburgh       PTCLDY    77  66  69 CALM      30.23R
Montgomery     CLEAR     71  67  87 CALM      30.21R
Poughkeepsie   PTCLDY    73  65  75 E3        30.19R
Albany         PTCLDY    73  66  78 CALM      30.20R
$$

NJZ001-105-106-008-010-013-015-019>022-104-280200-
NEW JERSEY

CITY           SKY/WX    TMP DP  RH WIND       PRES   REMARKS
Newark/Liberty MOCLDY    78  62  57 SE6       30.21R
Teterboro      PTCLDY    79  57  46 S5        30.20R
Caldwell       PTCLDY    78  58  49 CALM      30.22R
Morristown     PTCLDY    68  63  83 CALM      30.22R
Somerville     CLOUDY    72  63  73 NW3       30.19R
Linden         NOT AVBL
Sussex         PTCLDY    70  67  90 CALM      30.23R
Abdover          N/A     70  65  84 CALM      30.22R
Trenton        MOCLDY    77  58  51 E5        30.20R
Millville      PTCLDY    75  68  78 CALM      30.20R
Atlantic City  CLOUDY    73  68  84 NE3       30.20R
Wrightstown    CLEAR     72  66  81 E7        30.18R
Toms River     CLOUDY    71  67  87 CALM      30.22R
Belmar         PTCLDY    73  69  87 E3        30.23R
$$

PAZ047>061-062-071-280200-
EASTERN PENNSYLVANIA

CITY           SKY/WX    TMP DP  RH WIND       PRES   REMARKS
Philadelphia   CLOUDY    79  61  53 SE7       30.20R
Allentown      PTCLDY    81  61  50 SE5       30.20R
Scranton       CLOUDY    74  65  73 SE5       30.23R
$$

CTZ002-004>006-009-010-012-RIZ004-006-007-MAZ004-011-015-280200-
SOUTHERN NEW ENGLAND
 IN CT

CITY           SKY/WX    TMP DP  RH WIND       PRES   REMARKS
Bradley INTL   PTCLDY    78  60  53 S8        30.21R
Hartford       CLEAR     79  62  56 S6        30.20R
Danbury        CLEAR     71  60  68 CALM      30.24R
Wtrbury/Oxford NOT AVBL
Bridgeport     CLEAR     78  67  68 S5        30.21R
Meriden        CLEAR     73  62  68 CALM      30.21R
New Haven      PTCLDY    75  63  66 S8        30.22R
Chester        FAIR      73  63  68 S3        30.24R
Groton         CLEAR     73  65  75 SE5       30.22R
Wilimantic     CLEAR     75  61  61 CALM      30.23R

 IN RI

CITY           SKY/WX    TMP DP  RH WIND       PRES   REMARKS
Providence     CLEAR     73  65  75 S5        30.23R
Block Island   CLEAR     72  67  84 CALM      30.24R
Westerly       CLEAR     72  64  76 CALM      30.24R
 IN MA

CITY           SKY/WX    TMP DP  RH WIND       PRES   REMARKS
Boston         MOCLDY    72  61  68 SE6       30.23R
Worcester      CLEAR     72  62  71 S9        30.25R
Westfield      PTCLDY    72  65  78 S3        30.20R
Provincetown   CLEAR     66  61  84 SW3       30.24R
Nantucket      CLEAR     64  61  90 E3        30.22R
$$

ANZ330-335-338-340-345-350-353-355-280200-
COASTAL MARINE OBSERVATIONS


STATION/POSITION TIME  SKY/WX   TEMP    WIND        PRES    VSBY  WAVE
                                AIR SEA DIR/SP/G                  HT/PER
                 (UTC)          (F)     (DEG/KT/KT) (MB)    (MI)  (FT/S)
NY HARB ENTRANCE 2350            75 76  120/  4/  4 1022.2          2/11
20S FIRE ISLAND  2350            76 75   90/  8/ 10 1021.9          2/10
GREAT SOUTH BAY  NOT AVBL
23 SSW MONTAUK P 2350            76 78  140/  6/  8 1022.8          2/10
15 E BARNEGAT LI 0000               77                N/A           2/ 9
HUDSON CANYON    2350            77 78              1021.5          4/ 5
KINGS POINT      0000            79 77              1022.4
EXECUTION ROCKS  0000            80     170/  6/  8   N/A
CENTRAL LI SOUND NOT AVBL
EASTERN LI SOUND 0000            72 71  150/  4/  6   N/A
ROBBINS REEF     0000            78     170/ 10/ 11 1021.8
$$


>>>>>>>>>>>>>>>>>>>>>>>>>>>> KEY <<<<<<<<<<<<<<<<<<<<<<<<<<<
>                                                          <
>     SKY/WX - Sky Condition/Present Weather               <
>     TMP    - Temperature in Fahrenheit                   <
>     DP     - Dew Point in Fahrenheit                     <
>     RH     - Relative Humidity in Percent                <
>     WIND   - Direction (from) and Speed in MPH           <
>     PRES   - Mean Sea Level Pressure (inches of Hg)      <
>     WCI    - Wind Chill Index                            <
>     VSB    - VISIBILITY IN MILES                         <
>     HX     - HEAT INDEX                                  <
>     TC     - TEMPERATURE IN CELSIUS                      <
>     VRB    - VARIABLE WIND DIRECTION                     <
>                                                          <
>>>>>>>>>>>>>>>>>>>>>>>>>>>> KEY <<<<<<<<<<<<<<<<<<<<<<<<<<<




USA.gov is the U.S. government's official web portal to all federal, state and local government web resources and services.